Regional Weather Roundup
Issued by NWS

Home | Current Version | Previous Version | Text Only | Print | Product List | Glossary Off
Versions: 1 2 3 4 5 6 7 8 9 10 11 12 13 14 15 16 17 18 19 20 21 22 23 24 25 26 27 28 29 30 31 32 33 34 35 36 37 38 39 40 41 42 43 44 45 46 47 48 49 50

000
ASUS43 KLOT 270708
RWRIL

ILLINOIS REGIONAL WEATHER ROUNDUP
NATIONAL WEATHER SERVICE CHICAGO/ROMEOVILLE IL
200 AM CDT WED JUL 27 2016

NOTE: "FAIR" INDICATES FEW OR NO CLOUDS BELOW 12,000 FEET WITH NO
SIGNIFICANT WEATHER AND/OR OBSTRUCTIONS TO VISIBILITY.

* THESE STATIONS ARE NOT UNDER NWS QUALITY CONTROL. THEY ALSO MAY NOT
  REPORT WEATHER SUCH AS PRECIPITATION OR FOG.

ILZ001-002-007-009-015-016-024-270800-
NORTHWEST ILLINOIS

CITY           SKY/WX    TMP DP  RH WIND       PRES   REMARKS
MOLINE         CLEAR     68  64  87 CALM      29.99F
STERLING*      CLEAR     66  66 100 CALM      30.00F FOG
SAVANNA*       CLEAR     66  65  99 CALM      30.00F FOG
$$

ILZ003-004-008-010-011-017-018-270800-
NORTH CENTRAL ILLINOIS

CITY           SKY/WX    TMP DP  RH WIND       PRES   REMARKS
ROCKFORD       CLEAR     69  65  86 S3        30.01F
FREEPORT*      CLEAR     64  61  91 CALM      30.03S
ROCHELLE*      CLEAR     65  64  99 CALM      30.01S
DE KALB*       CLEAR     67  64  89 NW3       30.02S
$$

ILZ005-006-012>014-019>023-270800-
NORTHEAST ILLINOIS

CITY           SKY/WX    TMP DP  RH WIND       PRES   REMARKS
CHICAGO-OHARE  CLEAR     73  64  73 CALM      29.99F
CHICAGO-MIDWAY CLEAR     76  61  59 S3        29.99F
AURORA         CLEAR     67  65  93 CALM      30.00F
LANSING*       PTCLDY    69  62  78 CALM      30.00S
JOLIET*        CLEAR     70  69  94 CALM      30.00S
WAUKEGAN       CLEAR     67  64  90 CALM      29.99F
DUPAGE AIRPORT CLEAR     70  64  81 CALM      29.99F
KANKAKEE*      CLEAR     68  67  95 CALM      30.01F
WHEELING       CLEAR     70  64  81 CALM      30.01S
MORRIS*        CLEAR     69  67  92 CALM      29.99F
ROMEOVILLE*    CLEAR     69  65  86 SW3       30.00F
NORTHERLY ISL    N/A     74  62  66 SW2         N/A
$$

LMZ740>746-270800-
SOUTHERN LAKE MICHIGAN

STATION/POSITION SKY/WX   TEMP    WIND        PRES    VSBY  WAVE
                          AIR SEA DIR/SP/G                  HT/PER
                          (F)     (DEG/KT/KT) (MB)    (MI)  (FT/S)
SOUTHERN BUOY              75 76  190/  6/  6 1014.8F         0
WILMETTE HARBOR            71 70  190/  2/  2   N/A           0
HARRISON CRIB              76     190/  7/  8   N/A
BURNHAM HARBOR             75     210/  2/  4   N/A
CALUMET HARBOR             74     200/  1/  2 1015.4F
BURNS HARBOR               72     190/  4/  7 1016.3F
MICHIGAN CITY              71     110/  2/  2   N/A
MICHIGAN CITY 6N           74 77  180/  4/  6   N/A           0
ST. JOSEPH                 75 79  170/  2/  4 1015.4F         0
$$

ILZ025>027-034>036-040-047-049-050-058-095>099-270800-
WEST-CENTRAL ILLINOIS

CITY           SKY/WX    TMP DP  RH WIND       PRES   REMARKS
QUINCY         MOCLDY    74  68  81 E5        30.00S
GALESBURG*     CLEAR     66  65  97 CALM      29.99F
MACOMB*        CLEAR     65  65  97 CALM      30.01F FOG
JACKSONVILLE*  CLOUDY    71  69  93 NE3       29.99F
PITTSFIELD*    CLEAR     72  71  96 CALM      30.01S
$$

ILZ028>032-037-038-041>044-048-051>054-059>061-270800-
CENTRAL ILLINOIS

CITY           SKY/WX    TMP DP  RH WIND       PRES   REMARKS
BLOOMINGTON    CLEAR     70  68  93 CALM      30.02F
DECATUR        CLOUDY    68  65  90 CALM      30.00F
PEORIA         CLEAR     72  70  93 CALM      30.00F
LACON*         CLEAR     69  67  95 CALM      29.99F
LINCOLN*       CLEAR     69  68  98 CALM      30.00F
SPRINGFIELD    PTCLDY    73  70  90 NE5       30.00F
TAYLORVILLE    PTCLDY    69  68  96 MISG      30.00S
$$

ILZ033-039-045-046-055>057-062-063-270800-
EAST-CENTRAL ILLINOIS

CITY           SKY/WX    TMP DP  RH WIND       PRES   REMARKS
CHAMPAIGN      CLEAR     68  65  90 NE5       30.01F
MATTOON        CLOUDY    68  65  90 NE3       29.99F
PARIS*         PTCLDY    65  65 100 CALM      30.01F
$$

ILZ079-100>102-270800-
SOUTHWEST ILLINOIS

CITY           SKY/WX    TMP DP  RH WIND       PRES   REMARKS
ALTON          PTCLDY    73  72  99 CALM      29.98S FOG
BELLEVILLE     CLEAR     75  75 100 CALM      29.97R
CAHOKIA*       CLEAR     76  73  91 CALM      29.97S
SPARTA*        PTCLDY    73  73  99 CALM      29.99S FOG
$$

ILZ064>066-069>071-074>076-080>082-084>086-088>090-092>094-270800-
SOUTH-CENTRAL ILLINOIS

CITY           SKY/WX    TMP DP  RH WIND       PRES   REMARKS
CARBONDALE     CLEAR     74  72  93 CALM      29.97F FOG
CAIRO*         CLOUDY    74  74  99 NE5       29.96S
EFFINGHAM*     CLOUDY    72  72 100 CALM      30.00F
MARION         FOG       75  73  94 CALM      29.99S VSB 1/4
MT. VERNON     PTCLDY    73  70  88 MISG      29.98S
CENTRALIA*     PTCLDY    75  75 100 CALM      29.98S FOG
SALEM*         PTCLDY    76  74  95 CALM      29.98F FOG
METROPOLIS*    MOCLDY    73  73  98 CALM      29.98S FOG
$$

ILZ067-068-072-073-078-083-087-091-270800-
SOUTHEAST ILLINOIS

CITY           SKY/WX    TMP DP  RH WIND       PRES   REMARKS
LAWRENCEVILLE  CLEAR     74  72  93 NE3       29.98F
FLORA*         CLEAR     76  74  96 CALM      29.98F
FAIRFIELD*     CLEAR     73  73 100 CALM      29.97S FOG
HARRISBURG*    FOG       72  72 100 CALM      29.99R VSB 1
ROBINSON*      FOG       69  69 100 CALM      29.99F VSB 1/2
CARMI*         FOG       73  73 100 CALM      29.97F VSB 1
$$

ABBREVIATIONS USED IN REMARKS
   TC - TEMPERATURE IN CELSIUS
  WCI - WIND CHILL INDEX
   HX - HEAT INDEX
  VSB - VISIBILITY
$$





USA.gov is the U.S. government's official web portal to all federal, state and local government web resources and services.